User: anonymous   Login
Location: Via Auriletto, 13, 10098 Rivoli TO, Italia
(45.0746°N, 7.5214°E)
Time: 12:03:18
(UTC+01:00)
Language:

AAUSAT CUBESAT 2 - Orbit

View from above orbital plane
View from above orbital plane
View from above satellite
View from above satellite

Ground track
Ground track

The orbit data is extracted from the following two-line orbital elements,

1 32788U 08021F   19326.02349088  .00000414  00000-0  42892-4 0  9992
2 32788  97.4935 334.8200 0012648  41.2181 318.9993 14.94861433628275
Epoch (UTC): 22 November 2019 00:33:49
Eccentricity: 0.0012648
inclination: 97.4935°
perigee height: 574 km
apogee height: 591 km
right ascension of ascending node: 334.8200°
argument of perigee: 41.2181°
revolutions per day: 14.94861433
mean anomaly at epoch: 318.9993°
orbit number at epoch: 62827

The dashed part of the orbit path shows where the satellite is in the earth's shadow,  

DLR